| time (UTC) | temp F | wind direction | speed knots | gust knots | rain 1hr in | rain 24hr in | rain mn in | humidity % | barometer mb |
| 20260505183848 | 82 | 199 | 1.7 | 6.1 | 0.00 | 0.00 | 0.00 | 83 | 1007.5 |
| 20260505183350 | 82 | 200 | 1.7 | 6.1 | 0.00 | 0.00 | 0.00 | 83 | 1007.7 |
| 20260505183107 | 82 | 200 | 1.7 | 6.1 | 0.00 | 0.00 | 0.00 | 83 | 1007.7 |
| 20260505182347 | 82 | 200 | 1.7 | 6.1 | 0.00 | 0.00 | 0.00 | 83 | 1007.8 |
| 20260505181847 | 82 | 198 | 1.7 | 5.2 | 0.00 | 0.00 | 0.00 | 83 | 1007.7 |
| 20260505181610 | 82 | 199 | 1.7 | 5.2 | 0.00 | 0.00 | 0.00 | 83 | 1007.9 |
| 20260505180845 | 82 | 199 | 1.7 | 5.2 | 0.00 | 0.00 | 0.00 | 83 | 1007.8 |
| 20260505180345 | 82 | 198 | 1.7 | 5.2 | 0.00 | 0.00 | 0.00 | 83 | 1007.9 |
| 20260505180340 | 82 | 198 | 1.7 | 4.3 | 0.00 | 0.00 | 0.00 | 83 | 1007.9 |
| 20260505175342 | 82 | 198 | 0.9 | 5.2 | 0.00 | 0.00 | 0.00 | 83 | 1007.9 |
| 20260505174836 | 81 | 198 | 1.7 | 5.2 | 0.00 | 0.00 | 0.00 | 84 | 1007.9 |
| 20260505174336 | 81 | 198 | 1.7 | 5.2 | 0.00 | 0.00 | 0.00 | 83 | 1007.9 |
| 20260505173831 | 81 | 198 | 1.7 | 5.2 | 0.00 | 0.00 | 0.00 | 83 | 1008.0 |
| 20260505173326 | 81 | 195 | 1.7 | 4.3 | 0.00 | 0.00 | 0.00 | 84 | 1008.0 |
| 20260505172822 | 81 | 196 | 1.7 | 4.3 | 0.00 | 0.00 | 0.00 | 84 | 1008.0 |
| 20260505172319 | 81 | 195 | 1.7 | 6.1 | 0.00 | 0.00 | 0.00 | 84 | 1008.0 |
| 20260505172258 | 81 | 193 | 1.7 | 6.1 | 0.00 | 0.00 | 0.00 | 84 | 1008.1 |
| 20260505171308 | 81 | 196 | 1.7 | 4.3 | 0.00 | 0.00 | 0.00 | 84 | 1008.2 |
| 20260505170755 | 81 | 196 | 1.7 | 5.2 | 0.00 | 0.00 | 0.00 | 84 | 1008.2 |
| 20260505170516 | 81 | 196 | 0.9 | 5.2 | 0.00 | 0.00 | 0.00 | 84 | 1008.3 |
| 20260505165754 | 81 | 196 | 1.7 | 4.3 | 0.00 | 0.00 | 0.00 | 84 | 1008.3 |
| 20260505165513 | 81 | 196 | 1.7 | 5.2 | 0.00 | 0.00 | 0.00 | 84 | 1008.2 |
| 20260505164750 | 81 | 197 | 1.7 | 5.2 | 0.00 | 0.00 | 0.00 | 84 | 1008.2 |
| 20260505164238 | 80 | 198 | 0.9 | 4.3 | 0.00 | 0.00 | 0.00 | 84 | 1008.1 |
| 20260505163730 | 80 | 199 | 0.9 | 4.3 | 0.00 | 0.00 | 0.00 | 85 | 1008.1 |
| 20260505163223 | 80 | 199 | 0.9 | 4.3 | 0.00 | 0.00 | 0.00 | 85 | 1008.0 |
| 20260505162702 | 80 | 199 | 1.7 | 4.3 | 0.00 | 0.00 | 0.00 | 86 | 1008.0 |
| 20260505162158 | 80 | 199 | 1.7 | 4.3 | 0.00 | 0.00 | 0.00 | 86 | 1008.1 |
| 20260505161922 | 79 | 199 | 1.7 | 5.2 | 0.00 | 0.00 | 0.00 | 85 | 1008.2 |
| 20260505161425 | 80 | 202 | 1.7 | 5.2 | 0.00 | 0.00 | 0.00 | 85 | 1008.1 |
| 20260505160653 | 80 | 202 | 1.7 | 5.2 | 0.00 | 0.00 | 0.00 | 85 | 1008.0 |
| 20260505160152 | 80 | 205 | 1.7 | 4.3 | 0.00 | 0.00 | 0.00 | 85 | 1008.0 |
| 20260505153135 | 79 | 207 | 1.7 | 6.1 | 0.00 | 0.00 | 0.00 | 85 | 1008.0 |
| 20260505152636 | 79 | 207 | 1.7 | 6.1 | 0.00 | 0.00 | 0.00 | 85 | 1007.9 |
| 20260505152357 | 79 | 178 | 1.7 | 4.3 | 0.00 | 0.00 | 0.00 | 85 | 1007.8 |
| 20260505151628 | 79 | 184 | 1.7 | 7.0 | 0.00 | 0.00 | 0.00 | 85 | 1007.8 |
| 20260505151347 | 79 | 159 | 1.7 | 7.0 | 0.00 | 0.00 | 0.00 | 84 | 1007.8 |
| 20260505150624 | 79 | 207 | 2.6 | 6.1 | 0.00 | 0.00 | 0.00 | 85 | 1007.7 |
| 20260505150124 | 79 | 171 | 2.6 | 6.1 | 0.00 | 0.00 | 0.00 | 85 | 1007.7 |
| 20260505140558 | 77 | 211 | 0.9 | 3.5 | 0.00 | 0.00 | 0.00 | 90 | 1007.9 |
| 20260505125008 | 75 | 212 | 0.9 | 4.3 | 0.00 | 0.00 | 0.00 | 92 | 1007.5 |
| 20260505124724 | 74 | 212 | 0.9 | 3.5 | 0.00 | 0.00 | 0.00 | 92 | 1007.6 |
| 20260505123958 | 74 | 212 | 0.0 | 3.5 | 0.00 | 0.00 | 0.00 | 92 | 1007.7 |
| 20260505123449 | 74 | 212 | 0.0 | 2.6 | 0.00 | 0.00 | 0.00 | 92 | 1007.4 |
| 20260505122942 | 74 | 212 | 0.0 | 2.6 | 0.00 | 0.00 | 0.00 | 92 | 1007.3 |
| 20260505122406 | 74 | 212 | 0.9 | 2.6 | 0.00 | 0.00 | 0.00 | 92 | 1007.3 |
| 20260505121900 | 74 | 212 | 0.9 | 3.5 | 0.00 | 0.00 | 0.00 | 92 | 1007.1 |
| 20260505121358 | 74 | 212 | 0.9 | 3.5 | 0.00 | 0.00 | 0.00 | 91 | 1007.0 |
| 20260505120836 | 74 | 212 | 0.9 | 2.6 | 0.00 | 0.00 | 0.00 | 91 | 1007.0 |
| 20260505120336 | 74 | 212 | 0.9 | 2.6 | 0.00 | 0.00 | 0.00 | 92 | 1007.3 |
| 20260505115808 | 74 | 212 | 0.9 | 3.5 | 0.00 | 0.00 | 0.00 | 91 | 1007.5 |
| 20260505115305 | 74 | 212 | 0.0 | 3.5 | 0.00 | 0.00 | 0.00 | 92 | 1007.5 |
| 20260505114758 | 74 | 212 | 0.0 | 2.6 | 0.00 | 0.00 | 0.00 | 91 | 1007.5 |
| 20260505114256 | 73 | 212 | 0.9 | 2.6 | 0.00 | 0.00 | 0.00 | 92 | 1007.3 |
| 20260505113752 | 73 | 212 | 0.9 | 3.5 | 0.00 | 0.00 | 0.00 | 92 | 1007.2 |
| 20260505113253 | 73 | 212 | 0.9 | 3.5 | 0.00 | 0.00 | 0.00 | 91 | 1007.1 |
| 20260505113241 | 73 | 212 | 0.0 | 2.6 | 0.00 | 0.00 | 0.00 | 91 | 1007.0 |
| 20260505112254 | 73 | 212 | 0.0 | 2.6 | 0.00 | 0.00 | 0.00 | 91 | 1007.0 |
| 20260505111745 | 73 | 212 | 0.0 | 2.6 | 0.00 | 0.00 | 0.00 | 91 | 1007.1 |
| 20260505111506 | 73 | 212 | 0.0 | 2.6 | 0.00 | 0.00 | 0.00 | 91 | 1007.3 |
| 20260505110743 | 73 | 212 | 0.0 | 2.6 | 0.00 | 0.00 | 0.00 | 91 | 1007.4 |
| 20260505110711 | 73 | 212 | 0.0 | 1.7 | 0.00 | 0.00 | 0.00 | 91 | 1007.3 |
| 20260505102153 | 73 | 212 | 0.9 | 3.5 | 0.00 | 0.00 | 0.00 | 90 | 1007.1 |
| 20260505101655 | 73 | 212 | 0.0 | 2.6 | 0.00 | 0.00 | 0.00 | 90 | 1007.4 |
| 20260505101129 | 73 | 212 | 0.9 | 2.6 | 0.00 | 0.00 | 0.00 | 90 | 1007.4 |
| 20260505100630 | 73 | 212 | 0.9 | 2.6 | 0.00 | 0.00 | 0.00 | 90 | 1007.4 |
| 20260505100125 | 74 | 212 | 0.9 | 2.6 | 0.00 | 0.00 | 0.00 | 90 | 1007.2 |
| 20260505095845 | 73 | 212 | 0.9 | 2.6 | 0.00 | 0.00 | 0.00 | 90 | 1007.1 |
| 20260505095106 | 73 | 212 | 0.9 | 2.6 | 0.00 | 0.00 | 0.00 | 90 | 1007.0 |
| 20260505094601 | 73 | 212 | 0.9 | 2.6 | 0.00 | 0.00 | 0.00 | 90 | 1007.1 |
| 20260505094053 | 73 | 212 | 0.9 | 2.6 | 0.00 | 0.00 | 0.00 | 90 | 1007.2 |
| 20260505093553 | 73 | 212 | 0.0 | 2.6 | 0.00 | 0.00 | 0.00 | 90 | 1007.3 |
| 20260505093053 | 73 | 212 | 0.0 | 2.6 | 0.00 | 0.00 | 0.00 | 90 | 1007.4 |
| 20260505092551 | 73 | 212 | 0.0 | 1.7 | 0.00 | 0.00 | 0.00 | 90 | 1007.6 |
| 20260505092050 | 73 | 212 | 0.0 | 1.7 | 0.00 | 0.00 | 0.00 | 90 | 1007.6 |
| 20260505091543 | 73 | 212 | 0.0 | 3.5 | 0.00 | 0.00 | 0.00 | 90 | 1007.6 |
| 20260505091014 | 73 | 212 | 0.9 | 3.5 | 0.00 | 0.00 | 0.00 | 90 | 1007.5 |
| 20260505090511 | 73 | 212 | 0.9 | 2.6 | 0.00 | 0.00 | 0.00 | 90 | 1007.5 |
| 20260505085956 | 73 | 212 | 0.0 | 2.6 | 0.00 | 0.00 | 0.00 | 90 | 1007.5 |
| 20260505085453 | 73 | 212 | 0.0 | 1.7 | 0.00 | 0.00 | 0.00 | 90 | 1007.6 |
| 20260505085215 | 73 | 212 | 0.0 | 1.7 | 0.00 | 0.00 | 0.00 | 90 | 1007.5 |
| 20260505084453 | 73 | 212 | 0.0 | 1.7 | 0.00 | 0.00 | 0.00 | 90 | 1007.6 |
| 20260505083950 | 72 | 212 | 0.0 | 1.7 | 0.00 | 0.00 | 0.00 | 90 | 1007.6 |
| 20260505083930 | 72 | 212 | 0.0 | 1.7 | 0.00 | 0.00 | 0.00 | 90 | 1007.4 |
| 20260505082946 | 72 | 212 | 0.0 | 1.7 | 0.00 | 0.00 | 0.00 | 90 | 1007.5 |
| 20260505082430 | 72 | 212 | 0.0 | 2.6 | 0.00 | 0.00 | 0.00 | 90 | 1007.6 |
| 20260505081925 | 72 | 212 | 0.0 | 2.6 | 0.00 | 0.00 | 0.00 | 90 | 1007.6 |
| 20260505081357 | 72 | 212 | 0.0 | 2.6 | 0.00 | 0.00 | 0.00 | 90 | 1007.8 |
| 20260505081126 | 72 | 212 | 0.0 | 1.7 | 0.00 | 0.00 | 0.00 | 90 | 1007.7 |
| 20260505080344 | 72 | 212 | 0.0 | 2.6 | 0.00 | 0.00 | 0.00 | 90 | 1007.7 |
| 20260505075844 | 72 | 212 | 0.0 | 2.6 | 0.00 | 0.00 | 0.00 | 90 | 1007.8 |
| 20260505075334 | 72 | 212 | 0.9 | 3.5 | 0.00 | 0.00 | 0.00 | 90 | 1007.8 |
| 20260505075050 | 72 | 212 | 0.9 | 2.6 | 0.00 | 0.00 | 0.00 | 90 | 1007.9 |
| 20260505074324 | 72 | 212 | 0.9 | 2.6 | 0.00 | 0.00 | 0.00 | 90 | 1007.9 |
| 20260505073822 | 72 | 212 | 0.0 | 2.6 | 0.00 | 0.00 | 0.00 | 89 | 1007.9 |
| 20260505073545 | 71 | 212 | 0.9 | 2.6 | 0.00 | 0.00 | 0.00 | 89 | 1007.9 |
| 20260505072822 | 71 | 212 | 0.9 | 2.6 | 0.00 | 0.00 | 0.00 | 89 | 1007.9 |
| 20260505072250 | 71 | 212 | 0.0 | 1.7 | 0.00 | 0.00 | 0.00 | 89 | 1008.1 |
| 20260505071748 | 71 | 212 | 0.0 | 2.6 | 0.00 | 0.00 | 0.00 | 89 | 1008.1 |
| 20260505071511 | 71 | 212 | 0.9 | 2.6 | 0.00 | 0.00 | 0.00 | 89 | 1008.2 |
| 20260505071009 | 71 | 212 | 0.0 | 2.6 | 0.00 | 0.00 | 0.00 | 89 | 1008.3 |
| 20260505070459 | 71 | 212 | 0.0 | 2.6 | 0.00 | 0.00 | 0.00 | 89 | 1008.4 |
| 20260505065732 | 71 | 212 | 0.0 | 2.6 | 0.00 | 0.00 | 0.00 | 89 | 1008.4 |
| 20260505065226 | 71 | 212 | 0.0 | 2.6 | 0.00 | 0.00 | 0.00 | 89 | 1008.4 |
| 20260505064718 | 71 | 212 | 0.0 | 1.7 | 0.00 | 0.00 | 0.00 | 89 | 1008.6 |
| 20260505064208 | 71 | 212 | 0.0 | 1.7 | 0.00 | 0.00 | 0.00 | 89 | 1008.7 |
| 20260505063654 | 71 | 212 | 0.0 | 0.9 | 0.00 | 0.00 | 0.00 | 89 | 1008.7 |
| 20260505063147 | 71 | 212 | 0.0 | 0.9 | 0.00 | 0.00 | 0.00 | 88 | 1008.8 |
| 20260505062646 | 71 | 212 | 0.0 | 0.9 | 0.00 | 0.00 | 0.00 | 88 | 1008.9 |
| 20260505062128 | 71 | 212 | 0.0 | 0.9 | 0.00 | 0.00 | 0.00 | 88 | 1009.1 |
| 20260505061628 | 71 | 212 | 0.0 | 1.7 | 0.00 | 0.00 | 0.00 | 88 | 1009.0 |
| 20260505061044 | 71 | 212 | 0.0 | 1.7 | 0.00 | 0.00 | 0.00 | 88 | 1009.0 |
| 20260505060542 | 71 | 212 | 0.0 | 0.9 | 0.00 | 0.00 | 0.00 | 88 | 1009.0 |
| 20260505060258 | 71 | 212 | 0.0 | 1.7 | 0.00 | 0.00 | 0.00 | 88 | 1009.0 |
| 20260505055526 | 71 | 212 | 0.0 | 1.7 | 0.00 | 0.00 | 0.00 | 88 | 1008.9 |
| 20260505055016 | 71 | 212 | 0.0 | 2.6 | 0.00 | 0.00 | 0.00 | 87 | 1008.9 |
| 20260505054516 | 71 | 212 | 0.0 | 2.6 | 0.00 | 0.00 | 0.00 | 87 | 1009.1 |
| 20260505053958 | 71 | 212 | 0.0 | 0.9 | 0.00 | 0.00 | 0.00 | 87 | 1009.2 |
| 20260505053453 | 71 | 212 | 0.0 | 1.7 | 0.00 | 0.00 | 0.00 | 87 | 1009.2 |
| 20260505052952 | 71 | 212 | 0.0 | 1.7 | 0.00 | 0.00 | 0.00 | 87 | 1009.2 |
| 20260505052454 | 71 | 212 | 0.0 | 2.6 | 0.00 | 0.00 | 0.00 | 87 | 1009.3 |
| 20260505051951 | 71 | 212 | 0.9 | 3.5 | 0.00 | 0.00 | 0.00 | 87 | 1009.3 |
| 20260505051439 | 71 | 212 | 0.0 | 3.5 | 0.00 | 0.00 | 0.00 | 87 | 1009.2 |
| 20260505050938 | 71 | 212 | 0.0 | 2.6 | 0.00 | 0.00 | 0.00 | 86 | 1009.3 |
| 20260505050438 | 71 | 212 | 0.0 | 2.6 | 0.00 | 0.00 | 0.00 | 86 | 1009.2 |
| 20260505041316 | 72 | 212 | 0.0 | 2.6 | 0.00 | 0.00 | 0.00 | 85 | 1009.7 |
| 20260505040802 | 72 | 212 | 0.0 | 2.6 | 0.00 | 0.00 | 0.00 | 85 | 1009.6 |
| 20260505040258 | 72 | 212 | 0.0 | 1.7 | 0.00 | 0.00 | 0.00 | 84 | 1009.5 |
| 20260505035754 | 72 | 212 | 0.0 | 2.6 | 0.00 | 0.00 | 0.00 | 84 | 1009.7 |
| 20260505035250 | 72 | 212 | 0.0 | 2.6 | 0.00 | 0.00 | 0.00 | 84 | 1009.7 |
| 20260505034750 | 72 | 212 | 0.0 | 1.7 | 0.00 | 0.00 | 0.00 | 84 | 1009.8 |
| 20260505034248 | 72 | 212 | 0.0 | 1.7 | 0.00 | 0.00 | 0.00 | 83 | 1009.9 |
| 20260505033732 | 72 | 212 | 0.0 | 1.7 | 0.00 | 0.00 | 0.00 | 83 | 1009.9 |
| 20260505033212 | 72 | 212 | 0.0 | 1.7 | 0.00 | 0.00 | 0.00 | 83 | 1009.9 |
| 20260505032711 | 72 | 212 | 0.0 | 1.7 | 0.00 | 0.00 | 0.00 | 83 | 1009.8 |
| 20260505032211 | 72 | 212 | 0.0 | 0.9 | 0.00 | 0.00 | 0.00 | 83 | 1009.9 |
| 20260505031706 | 73 | 212 | 0.0 | 1.7 | 0.00 | 0.00 | 0.00 | 82 | 1010.0 |
| 20260505031427 | 73 | 212 | 0.0 | 1.7 | 0.00 | 0.00 | 0.00 | 82 | 1009.9 |
| 20260505030919 | 73 | 212 | 0.0 | 1.7 | 0.00 | 0.00 | 0.00 | 82 | 1009.9 |
| 20260505030408 | 73 | 212 | 0.0 | 2.6 | 0.00 | 0.00 | 0.00 | 82 | 1009.9 |
| 20260505025652 | 73 | 212 | 0.0 | 2.6 | 0.00 | 0.00 | 0.00 | 82 | 1009.8 |
| 20260505025150 | 73 | 212 | 0.0 | 3.5 | 0.00 | 0.00 | 0.00 | 81 | 1009.8 |
| 20260505024650 | 73 | 212 | 0.0 | 3.5 | 0.00 | 0.00 | 0.00 | 81 | 1009.8 |
| 20260505024148 | 74 | 212 | 0.9 | 3.5 | 0.00 | 0.00 | 0.00 | 81 | 1009.8 |
| 20260505023634 | 74 | 212 | 0.9 | 2.6 | 0.00 | 0.00 | 0.00 | 80 | 1009.8 |
| 20260505023122 | 74 | 212 | 0.9 | 3.5 | 0.00 | 0.00 | 0.00 | 80 | 1009.7 |
| 20260505022620 | 74 | 212 | 0.9 | 3.5 | 0.00 | 0.00 | 0.00 | 80 | 1009.8 |
| 20260505022118 | 74 | 212 | 1.7 | 4.3 | 0.00 | 0.00 | 0.00 | 80 | 1009.8 |
| 20260505021617 | 74 | 212 | 0.9 | 4.3 | 0.00 | 0.00 | 0.00 | 79 | 1009.6 |
| 20260505021118 | 74 | 212 | 0.9 | 4.3 | 0.00 | 0.00 | 0.00 | 80 | 1009.6 |
| 20260505020616 | 74 | 212 | 0.9 | 4.3 | 0.00 | 0.00 | 0.00 | 79 | 1009.7 |
| 20260505020054 | 74 | 213 | 0.9 | 3.5 | 0.00 | 0.00 | 0.00 | 79 | 1009.6 |
| 20260505015554 | 74 | 214 | 0.9 | 3.5 | 0.00 | 0.00 | 0.00 | 79 | 1009.5 |
| 20260505015054 | 74 | 214 | 1.7 | 4.3 | 0.00 | 0.00 | 0.00 | 79 | 1009.4 |
| 20260505014552 | 74 | 214 | 1.7 | 6.1 | 0.00 | 0.00 | 0.00 | 79 | 1009.2 |
| 20260505014050 | 75 | 217 | 0.9 | 6.1 | 0.00 | 0.00 | 0.00 | 79 | 1009.2 |
| 20260505014044 | 75 | 216 | 1.7 | 4.3 | 0.00 | 0.00 | 0.00 | 79 | 1009.3 |
| 20260505013049 | 75 | 216 | 1.7 | 5.2 | 0.00 | 0.00 | 0.00 | 79 | 1009.3 |
| 20260505012549 | 75 | 215 | 1.7 | 5.2 | 0.00 | 0.00 | 0.00 | 79 | 1009.2 |
| 20260505012047 | 75 | 188 | 1.7 | 5.2 | 0.00 | 0.00 | 0.00 | 79 | 1009.4 |
| 20260505011546 | 75 | 199 | 1.7 | 5.2 | 0.00 | 0.00 | 0.00 | 78 | 1009.4 |
| 20260505011046 | 75 | 199 | 0.9 | 5.2 | 0.00 | 0.00 | 0.00 | 78 | 1009.4 |
| 20260505010541 | 75 | 199 | 1.7 | 3.5 | 0.00 | 0.00 | 0.00 | 77 | 1009.1 |
| 20260505010307 | 75 | 176 | 2.6 | 7.0 | 0.00 | 0.00 | 0.00 | 77 | 1009.1 |
| 20260505005532 | 76 | 176 | 2.6 | 7.8 | 0.00 | 0.00 | 0.00 | 77 | 1009.2 |
| 20260505005244 | 76 | 170 | 2.6 | 7.8 | 0.00 | 0.00 | 0.00 | 76 | 1011.4 |
| 20260505004520 | 76 | 167 | 2.6 | 6.1 | 0.00 | 0.00 | 0.00 | 76 | 1009.2 |
| 20260505004016 | 76 | 165 | 2.6 | 6.1 | 0.00 | 0.00 | 0.00 | 76 | 1009.2 |
| 20260505003516 | 76 | 161 | 2.6 | 6.1 | 0.00 | 0.00 | 0.00 | 76 | 1009.1 |
| 20260505003016 | 76 | 161 | 2.6 | 6.1 | 0.00 | 0.00 | 0.00 | 75 | 1009.0 |
| 20260505002514 | 77 | 159 | 2.6 | 6.1 | 0.00 | 0.00 | 0.00 | 75 | 1009.0 |
| 20260505002004 | 77 | 158 | 2.6 | 7.8 | 0.00 | 0.00 | 0.00 | 74 | 1008.9 |
| 20260505001504 | 77 | 156 | 2.6 | 7.8 | 0.00 | 0.00 | 0.00 | 73 | 1008.9 |
| 20260505001002 | 77 | 212 | 2.6 | 7.0 | 0.00 | 0.00 | 0.00 | 73 | 1009.0 |
| 20260505000502 | 78 | 209 | 1.7 | 7.0 | 0.00 | 0.00 | 0.00 | 73 | 1009.0 |
| 20260505000003 | 78 | 180 | 1.7 | 5.2 | 0.00 | 0.00 | 0.00 | 73 | 1009.1 |
| 20260504235504 | 78 | 182 | 1.7 | 5.2 | 0.00 | 0.00 | 0.00 | 72 | 1009.2 |
| 20260504235003 | 78 | 180 | 1.7 | 6.1 | 0.00 | 0.00 | 0.00 | 72 | 1009.3 |
| 20260504234457 | 78 | 180 | 1.7 | 6.1 | 0.00 | 0.00 | 0.00 | 72 | 1009.3 |
| 20260504233954 | 78 | 180 | 2.6 | 6.1 | 0.00 | 0.00 | 0.00 | 72 | 1009.3 |
| 20260504233450 | 78 | 204 | 2.6 | 6.1 | 0.00 | 0.00 | 0.00 | 72 | 1009.4 |
| 20260504232950 | 78 | 205 | 3.5 | 7.8 | 0.00 | 0.00 | 0.00 | 72 | 1009.4 |
| 20260504232449 | 78 | 200 | 2.6 | 7.8 | 0.00 | 0.00 | 0.00 | 72 | 1009.4 |
| 20260504232218 | 79 | 203 | 2.6 | 6.1 | 0.00 | 0.00 | 0.00 | 72 | 1009.6 |
| 20260504231450 | 79 | 190 | 2.6 | 7.8 | 0.00 | 0.00 | 0.00 | 71 | 1009.6 |
| 20260504230948 | 79 | 171 | 2.6 | 7.8 | 0.00 | 0.00 | 0.00 | 71 | 1009.6 |
| 20260504230450 | 79 | 187 | 2.6 | 7.0 | 0.00 | 0.00 | 0.00 | 71 | 1009.6 |
| 20260504225946 | 79 | 184 | 2.6 | 7.0 | 0.00 | 0.00 | 0.00 | 71 | 1009.7 |
| 20260504225442 | 79 | 209 | 3.5 | 7.0 | 0.00 | 0.00 | 0.00 | 71 | 1009.8 |
| 20260504224944 | 79 | 161 | 2.6 | 6.1 | 0.00 | 0.00 | 0.00 | 71 | 1009.6 |
| 20260504224444 | 79 | 191 | 2.6 | 6.1 | 0.00 | 0.00 | 0.00 | 71 | 1009.8 |
| 20260504223943 | 79 | 190 | 2.6 | 6.1 | 0.00 | 0.00 | 0.00 | 71 | 1009.8 |
| 20260504222923 | 79 | 192 | 2.6 | 7.8 | 0.00 | 0.00 | 0.00 | 70 | 1009.9 |
| 20260504222906 | 80 | 192 | 1.7 | 6.1 | 0.00 | 0.00 | 0.00 | 70 | 1010.0 |
| 20260504222151 | 80 | 188 | 2.6 | 7.8 | 0.00 | 0.00 | 0.00 | 69 | 1010.1 |
| 20260504221423 | 80 | 179 | 1.7 | 7.8 | 0.00 | 0.00 | 0.00 | 69 | 1010.2 |
| 20260504221407 | 80 | 198 | 1.7 | 5.2 | 0.00 | 0.00 | 0.00 | 69 | 1010.3 |
| 20260504220422 | 79 | 198 | 1.7 | 7.0 | 0.00 | 0.00 | 0.00 | 69 | 1010.2 |
| 20260504215917 | 80 | 194 | 1.7 | 7.0 | 0.00 | 0.00 | 0.00 | 68 | 1010.2 |
| 20260504215415 | 80 | 198 | 1.7 | 5.2 | 0.00 | 0.00 | 0.00 | 68 | 1010.3 |
| 20260504214916 | 80 | 207 | 2.6 | 5.2 | 0.00 | 0.00 | 0.00 | 68 | 1010.3 |
| 20260504214416 | 80 | 180 | 2.6 | 7.0 | 0.00 | 0.00 | 0.00 | 67 | 1010.3 |
| 20260504214401 | 80 | 180 | 2.6 | 7.0 | 0.00 | 0.00 | 0.00 | 68 | 1010.4 |
| 20260504213414 | 80 | 205 | 2.6 | 7.8 | 0.00 | 0.00 | 0.00 | 67 | 1010.4 |
| 20260504213135 | 80 | 213 | 2.6 | 7.8 | 0.00 | 0.00 | 0.00 | 68 | 1010.5 |
| 20260504212640 | 80 | 219 | 2.6 | 6.1 | 0.00 | 0.00 | 0.00 | 67 | 1010.6 |
| 20260504211916 | 81 | 198 | 2.6 | 6.1 | 0.00 | 0.00 | 0.00 | 67 | 1010.5 |
| 20260504211413 | 81 | 200 | 2.6 | 7.0 | 0.00 | 0.00 | 0.00 | 67 | 1010.6 |
| 20260504210914 | 80 | 201 | 3.5 | 8.7 | 0.00 | 0.00 | 0.00 | 66 | 1010.7 |
| 20260504210412 | 81 | 205 | 3.5 | 8.7 | 0.00 | 0.00 | 0.00 | 66 | 1010.9 |
| 20260504205912 | 81 | 203 | 2.6 | 5.2 | 0.00 | 0.00 | 0.00 | 66 | 1010.9 |
| 20260504205410 | 81 | 201 | 2.6 | 6.1 | 0.00 | 0.00 | 0.00 | 66 | 1010.9 |
| 20260504205133 | 81 | 201 | 2.6 | 7.0 | 0.00 | 0.00 | 0.00 | 65 | 1010.8 |
| 20260504204408 | 82 | 201 | 1.7 | 7.0 | 0.00 | 0.00 | 0.00 | 65 | 1010.9 |
| 20260504203904 | 82 | 200 | 1.7 | 6.1 | 0.00 | 0.00 | 0.00 | 65 | 1011.0 |
| 20260504203406 | 82 | 163 | 1.7 | 6.1 | 0.00 | 0.00 | 0.00 | 65 | 1011.0 |
| 20260504202900 | 82 | 193 | 0.9 | 4.3 | 0.00 | 0.00 | 0.00 | 65 | 1011.1 |
| 20260504202356 | 81 | 193 | 1.7 | 4.3 | 0.00 | 0.00 | 0.00 | 65 | 1011.2 |
| 20260504201856 | 82 | 200 | 2.6 | 7.0 | 0.00 | 0.00 | 0.00 | 64 | 1011.3 |
| 20260504201356 | 82 | 205 | 2.6 | 7.0 | 0.00 | 0.00 | 0.00 | 63 | 1011.3 |
| 20260504200856 | 82 | 204 | 1.7 | 5.2 | 0.00 | 0.00 | 0.00 | 63 | 1011.3 |
| 20260504200354 | 82 | 201 | 1.7 | 7.0 | 0.00 | 0.00 | 0.00 | 64 | 1011.5 |
| 20260504195851 | 82 | 203 | 2.6 | 8.7 | 0.00 | 0.00 | 0.00 | 64 | 1011.6 |
| 20260504195617 | 83 | 220 | 2.6 | 8.7 | 0.00 | 0.00 | 0.00 | 63 | 1011.5 |
| 20260504194852 | 83 | 180 | 2.6 | 7.0 | 0.00 | 0.00 | 0.00 | 62 | 1011.5 |
| 20260504194352 | 83 | 221 | 2.6 | 6.1 | 0.00 | 0.00 | 0.00 | 61 | 1011.6 |
| 20260504194107 | 83 | 192 | 1.7 | 6.1 | 0.00 | 0.00 | 0.00 | 62 | 1011.7 |
| 20260504193600 | 83 | 192 | 1.7 | 6.1 | 0.00 | 0.00 | 0.00 | 62 | 1011.8 |
| 20260504193104 | 83 | 189 | 1.7 | 5.2 | 0.00 | 0.00 | 0.00 | 62 | 1011.9 |
| 20260504192339 | 83 | 191 | 0.9 | 3.5 | 0.00 | 0.00 | 0.00 | 63 | 1012.1 |
| 20260504191840 | 82 | 191 | 1.7 | 6.1 | 0.00 | 0.00 | 0.00 | 64 | 1012.0 |
| 20260504191559 | 82 | 191 | 2.6 | 6.1 | 0.00 | 0.00 | 0.00 | 62 | 1012.1 |
| 20260504190840 | 83 | 189 | 2.6 | 7.8 | 0.00 | 0.00 | 0.00 | 62 | 1012.1 |
| 20260504190337 | 83 | 191 | 2.6 | 7.8 | 0.00 | 0.00 | 0.00 | 63 | 1012.1 |
| 20260504185836 | 83 | 188 | 2.6 | 4.3 | 0.00 | 0.00 | 0.00 | 61 | 1012.2 |
| 20260504185336 | 82 | 188 | 2.6 | 8.7 | 0.00 | 0.00 | 0.00 | 63 | 1012.2 |
| 20260504185102 | 83 | 188 | 2.6 | 8.7 | 0.00 | 0.00 | 0.00 | 60 | 1012.3 |
| 20260504184336 | 83 | 167 | 2.6 | 7.8 | 0.00 | 0.00 | 0.00 | 61 | 1012.3 |